Location: Chillicothe
(39.7950°N, 93.5520°W)
Time: 07:32:52
(UTC-06:00)

Vanguard 3 - Pass Details

Date: 23 October 2019
Orbit: 508 x 3263 km, 33.3° (Epoch: 11 November)

Event Time Altitude Azimuth Distance (km) Brightness Sun altitude
Rises 04:38:03 0° 261° (W) 2,731 - -34.0°
Reaches altitude 10° 04:40:32 10° 241° (WSW) 1,996 - -33.6°
Maximum altitude 04:43:44 19° 195° (SSW) 1,734 - -33.0°
Exits shadow 04:46:36 14° 161° (SSE) 2,308 9.5 -32.4°
Drops below altitude 10° 04:47:56 10° 151° (SSE) 2,717 10.0 -32.2°
Sets 04:52:07 0° 136° (SE) 4,167 11.2 -31.4°
